Selinsgrove, PA

7:44 AM EDT on March 23, 2017 (GMT -0400)
Penn Valley

Weather History for KSEG - January, 2014

Change the Weather History Date:

Friday, January 17, 2014

  Actual Average (KIPT) Record (KIPT)
Temperature  
Mean Temperature 32 °F -  
Max Temperature 39 °F 30 °F 61 °F (1990)
Min Temperature 23 °F 16 °F -13 °F (2009)
Degree Days  
Heating Degree Days 34    
Moisture  
Dew Point 23 °F    
Average Humidity 73    
Maximum Humidity 92    
Minimum Humidity 55    
Precipitation  
Precipitation 0.00 in - - ()
Sea Level Pressure  
Sea Level Pressure 29.91 in    
Wind  
Wind Speed 1 mph (SW)    
Max Wind Speed 7 mph    
Max Gust Speed -    
Visibility 9 miles    
Events      
Averages and records for this station are not official NWS values.
T = Trace of Precipitation, MM = Missing Value Source: NWS Daily Summary

Daily Weather History Graph

Daily Weather History Graph

Search for Another Location

Airport or City:

Trip Planner

Search our weather history database for the weather conditions in past years. The results will help you decide how hot, cold, wet, or windy it might be!

Date:

Astronomy

Jan. 17, 2014 Rise Set
Actual Time 7:28 AM EST 5:06 PM EST
Civil Twilight 6:58 AM EST 5:36 PM EST
Nautical Twilight 6:25 AM EST 6:10 PM EST
Astronomical Twilight 5:52 AM EST 6:43 PM EST
Moon 6:52 PM EST (1/17) 7:54 AM EST (1/17)
Length of Visible Light 10h 38m
Length of Day
9h 38m
Full, 98% of the Moon is Illuminated
Jan 17
Full
Jan 24
Last Quarter
Jan 30
New
Feb 6
First Quarter
Feb 14
Full

Hourly Weather History & Observations

Time (EST) Temp. Windchill Dew Point Humidity Pressure Visibility Wind Dir Wind Speed Gust Speed Precip Events Conditions
12:53 AM 26.1 °F - 21.9 °F 84% 29.93 in 9.0 mi Calm Calm - N/A   Overcast
1:53 AM 27.0 °F - 21.9 °F 81% 29.91 in 8.0 mi Calm Calm - N/A   Overcast
2:53 AM 28.0 °F - 23.0 °F 81% 29.90 in 9.0 mi Calm Calm - N/A   Overcast
3:53 AM 28.0 °F - 21.0 °F 75% 29.90 in 10.0 mi Calm Calm - N/A   Overcast
4:53 AM 28.0 °F - 23.0 °F 81% 29.89 in 9.0 mi Calm Calm - N/A   Overcast
5:53 AM 30.0 °F 26.5 °F 21.0 °F 69% 29.90 in 10.0 mi South 3.5 mph - N/A   Overcast
6:53 AM 28.9 °F - 21.9 °F 75% 29.91 in 10.0 mi Calm Calm - N/A   Overcast
8:53 AM 32.0 °F 27.5 °F 21.0 °F 64% 29.94 in 10.0 mi SSW 4.6 mph - N/A   Overcast
9:53 AM 33.1 °F 27.7 °F 23.0 °F 66% 29.95 in 10.0 mi South 5.8 mph - N/A   Overcast
10:53 AM 35.1 °F 29.3 °F 23.0 °F 61% 29.95 in 10.0 mi SSW 6.9 mph - N/A   Overcast
11:53 AM 37.0 °F 34.5 °F 23.0 °F 57% 29.92 in 10.0 mi SSW 3.5 mph - N/A   Overcast
12:53 PM 37.9 °F 35.5 °F 23.0 °F 55% 29.91 in 10.0 mi South 3.5 mph - N/A   Overcast
1:53 PM 39.0 °F 36.8 °F 26.1 °F 60% 29.91 in 10.0 mi Variable 3.5 mph - N/A   Overcast
2:53 PM 39.0 °F - 25.0 °F 57% 29.91 in 10.0 mi Calm Calm - N/A   Overcast
3:53 PM 39.0 °F - 25.0 °F 57% 29.90 in 10.0 mi Calm Calm - N/A   Mostly Cloudy
4:53 PM 37.0 °F - 26.1 °F 65% 29.91 in 10.0 mi Calm Calm - N/A   Overcast
5:53 PM 34.0 °F - 26.1 °F 73% 29.91 in 10.0 mi Calm Calm - N/A   Scattered Clouds
6:53 PM 30.9 °F 27.5 °F 26.1 °F 82% 29.91 in 10.0 mi NNW 3.5 mph - N/A   Clear
7:53 PM 26.1 °F - 23.0 °F 88% 29.91 in 9.0 mi Calm Calm - N/A   Clear
8:53 PM 25.0 °F - 23.0 °F 92% 29.90 in 7.0 mi Calm Calm - N/A   Clear
9:53 PM 25.0 °F 20.7 °F 21.9 °F 88% 29.90 in 6.0 mi NNW 3.5 mph - N/A   Clear
10:53 PM 24.1 °F - 21.0 °F 88% 29.87 in 5.0 mi Calm Calm - N/A   Clear
11:53 PM 23.0 °F - 19.9 °F 88% 29.85 in 5.0 mi Calm Calm - N/A   Scattered Clouds